Regional Weather Roundup
Issued by NWS

Home | Current Version | Previous Version | Graphics & Text | Print | Product List | Glossary On
Versions: 1 2 3 4 5 6 7 8 9 10 11 12 13 14 15 16 17 18 19 20 21 22 23 24 25 26 27 28 29 30 31 32 33 34 35 36 37 38 39 40 41 42 43 44 45 46 47 48
000
ASUS45 KBOI 250310
RWRID
WEATHER ROUNDUP FOR IDAHO
NATIONAL WEATHER SERVICE BOISE ID
800 PM MST WED DEC 24 2014

NOTE: "FAIR" INDICATES FEW OR NO CLOUDS BELOW 12000 FEET
WITH NO SIGNIFICANT WEATHER AND/OR OBSTRUCTIONS TO VISIBILITY

IDZ012-014-250400-
SOUTHWEST IDAHO


CITY           SKY/WX    TMP DP  RH WIND       PRES   REMARKS
BOISE          LGT SNOW  32  31  96 NW20      29.52R VSB 1   WCI  20
CALDWELL       CLOUDY    34  27  75 SW24G30   29.60R WCI  21
MOUNTAIN HOME  LGT SNOW  32  32 100 NW32      29.47R FOG     WCI  17
$$

IDZ016-017-250400-
SOUTHCENTRAL IDAHO


CITY           SKY/WX    TMP DP  RH WIND       PRES   REMARKS
JEROME         LGT RAIN  35  33  92 NE12      29.36F WCI  27
TWIN FALLS     CLOUDY    47  32  56 S16       29.35F
$$

IDZ019>023-250400-
SOUTHEAST IDAHO


CITY           SKY/WX    TMP DP  RH WIND       PRES   REMARKS
IDAHO FALLS    LGT SNOW  32  30  92 S9        29.46F VSB 3/4 WCI  24
POCATELLO      CLOUDY    37  29  72 S13       29.44F WCI  29
REXBURG        LGT SNOW  31  30  96 S7        29.47F FOG     WCI  24
$$

IDZ006-010-011-018-031-032-250400-
CENTRAL IDAHO MOUNTAINS


CITY           SKY/WX    TMP DP  RH WIND       PRES   REMARKS
MCCALL         CLOUDY    28  21  75 N17G29    29.53R WCI  16
HAILEY         LGT SNOW  28  28 100 CALM      29.41F VSB 3/4
STANLEY          N/A     31  27  85 CALM      29.38S
SALMON         CLOUDY    30  28  93 CALM      29.47S
CHALLIS        LGT SNOW  28  27  96 NW6       29.41S FOG     WCI  22
$$

IDZ002-004-006-007-026-250400-
NORTHERN IDAHO


CITY           SKY/WX    TMP DP  RH WIND       PRES   REMARKS
LEWISTON       CLOUDY    38  34  85 W9        29.73S WCI  31
LOWELL           N/A     36  35  96 CALM      29.71R
COEUR D`ALENE  CLOUDY    36  34  93 W3        29.68R
MULLAN PASS    SNOW      25  21  85 NW9       29.52F VSB 1/4 WCI  15
$$


USA.gov is the U.S. government's official web portal to all federal, state and local government web resources and services.